Volver al catálogo

STARLINK-35303

ActivoComunicacionesVLEO
NORAD 65860·PAYLOAD·🇺🇸 United States

Lanzado Oct 3, 2025 desde Vandenberg Space Force Base

Loading…

Próximos Pases (próximas 24 horas)

TLE

ActualizadoSource: CelesTrak SupGP

Época: Sep 14, 2026, 15:47 UTC

1 65860C 25223G   26257.65812500  .00028499  00000+0  84195-3 0  2576
2 65860  53.1575 132.9961 0000945  93.9157 355.0955 15.34379367    17

Sigue STARLINK-35303 en tiempo real con AllMySat

Download on the App Store